Lagostelle, Spain

3:51 AM CET on February 26, 2017 (GMT +0100)
A Coruna

Weather History for LECO - November, 2012

Change the Weather History Date:

Friday, November 30, 2012

  Actual Average Record
Temperature  
Mean Temperature 48 °F -  
Max Temperature 51 °F 55 °F 64 °F (2000)
Min Temperature 46 °F 43 °F 37 °F (2008)
Degree Days  
Heating Degree Days 16    
Moisture  
Dew Point 45 °F    
Average Humidity 88    
Maximum Humidity 100    
Minimum Humidity 76    
Precipitation  
Precipitation 0.00 in - - ()
Sea Level Pressure  
Sea Level Pressure 29.86 in    
Wind  
Wind Speed 8 mph ()    
Max Wind Speed 18 mph    
Max Gust Speed 36 mph    
Visibility 5.8 miles    
Events Rain    
Averages and records for this station are not official NWS values.
T = Trace of Precipitation, MM = Missing Value Source: Averaged Metar Reports

Daily Weather History Graph

Daily Weather History Graph

Search for Another Location

Airport or City:

Trip Planner

Search our weather history database for the weather conditions in past years. The results will help you decide how hot, cold, wet, or windy it might be!

Date:

Astronomy

Nov. 30, 2012 Rise Set
Actual Time 8:45 AM CET 5:59 PM CET
Civil Twilight 8:13 AM CET 6:31 PM CET
Nautical Twilight 7:37 AM CET 7:06 PM CET
Astronomical Twilight 7:03 AM CET 7:40 PM CET
Moon 7:42 PM CET (11/30) 10:07 AM CET (11/30)
Length of Visible Light 10h 17m
Length of Day
9h 14m
Full, 97% of the Moon is Illuminated
Nov 30
Full
Dec 6
Last Quarter
Dec 13
New
Dec 20
First Quarter
Dec 28
Full

Hourly Weather History & Observations

Time (CET) Temp. Windchill Dew Point Humidity Pressure Visibility Wind Dir Wind Speed Gust Speed Precip Events Conditions
12:00 AM 50.0 °F - 46.4 °F 87% 29.86 in 6.2 mi NNW 10.4 mph - N/A   Mostly Cloudy
12:30 AM 50.0 °F - 44.6 °F 82% 29.86 in 4.3 mi NW 13.8 mph 32.2 mph N/A Rain Rain
1:00 AM 50.0 °F - 44.6 °F 82% 29.86 in 6.2 mi NNW 18.4 mph 31.1 mph N/A Rain Rain
5:30 AM 48.2 °F - 44.6 °F 87% 29.77 in 5.0 mi North 18.4 mph 29.9 mph N/A Rain Rain
6:00 AM 50.0 °F - 44.6 °F 82% 29.77 in 6.2 mi NNW 15.0 mph 28.8 mph N/A   Mostly Cloudy
6:30 AM 50.0 °F - 46.4 °F 87% 29.77 in 6.2 mi NNW 16.1 mph 28.8 mph N/A Rain Light Rain
6:49 AM 48.2 °F - 46.4 °F 93% 29.77 in 2.5 mi North 18.4 mph 35.7 mph N/A Rain Rain
7:00 AM 48.2 °F - 46.4 °F 93% 29.77 in 4.3 mi North 17.3 mph 28.8 mph N/A Rain Rain
7:30 AM 50.0 °F - 46.4 °F 87% 29.74 in 6.2 mi North 12.7 mph - N/A   Mostly Cloudy
7:50 AM 48.2 °F - 46.4 °F 93% 29.77 in 2.5 mi NE 6.9 mph - N/A Rain Rain
8:00 AM 48.2 °F - 46.4 °F 93% 29.77 in 5.0 mi NNE 3.5 mph - N/A Rain Light Rain
8:30 AM 46.4 °F - 46.4 °F 100% 29.77 in 6.2 mi Variable 1.2 mph - N/A   Scattered Clouds
9:00 AM 46.4 °F - 46.4 °F 100% 29.77 in 6.2 mi Calm Calm - N/A   Partly Cloudy
9:30 AM 46.4 °F - 44.6 °F 93% 29.80 in 6.2 mi Variable 2.3 mph - N/A   Scattered Clouds
10:00 AM 46.4 °F 42.9 °F 44.6 °F 93% 29.83 in 5.0 mi NNE 6.9 mph - N/A Rain Light Rain
10:30 AM 46.4 °F - 46.4 °F 100% 29.83 in 6.2 mi Variable 1.2 mph - N/A   Light Drizzle
11:00 AM 48.2 °F - 46.4 °F 93% 29.83 in 6.2 mi Calm Calm - N/A   Mostly Cloudy
11:03 AM 48.2 °F - 46.4 °F 93% 29.83 in 2.5 mi Calm Calm - N/A Rain Rain
11:23 AM 48.2 °F - 46.4 °F 93% 29.83 in 6.2 mi Calm Calm - N/A   Mostly Cloudy
11:30 AM 48.2 °F - 46.4 °F 93% 29.83 in 6.2 mi Calm Calm - N/A   Mostly Cloudy
12:00 PM 48.2 °F - 48.2 °F 100% 29.86 in 6.2 mi Variable 2.3 mph - N/A   Scattered Clouds
12:30 PM 50.0 °F - 46.4 °F 87% 29.86 in 5.0 mi NNE 4.6 mph - N/A Rain Rain
1:00 PM 50.0 °F - 48.2 °F 94% 29.86 in 6.2 mi North 4.6 mph - N/A   Mostly Cloudy
1:30 PM 50.0 °F - 44.6 °F 82% 29.86 in 6.2 mi NNE 10.4 mph - N/A   Mostly Cloudy
2:00 PM 50.0 °F - 46.4 °F 87% 29.86 in 6.2 mi NNE 10.4 mph - N/A Rain Light Rain
2:30 PM 50.0 °F - 44.6 °F 82% 29.86 in 6.2 mi NNE 8.1 mph - N/A   Scattered Clouds
3:00 PM 50.0 °F - 44.6 °F 82% 29.86 in 6.2 mi NNE 5.8 mph - N/A   Mostly Cloudy
3:30 PM 50.0 °F - 44.6 °F 82% 29.86 in 6.2 mi NE 9.2 mph - N/A   Scattered Clouds
4:00 PM 50.0 °F - 44.6 °F 82% 29.86 in 6.2 mi NNE 8.1 mph - N/A   Mostly Cloudy
4:30 PM 51.8 °F - 44.6 °F 76% 29.86 in 6.2 mi NE 4.6 mph - N/A   Mostly Cloudy
4:35 PM 50.0 °F - 44.6 °F 82% 29.86 in 6.2 mi NNE 4.6 mph - N/A Rain Light Rain Showers
5:00 PM 50.0 °F - 44.6 °F 82% 29.89 in 6.2 mi ENE 4.6 mph - N/A   Scattered Clouds
5:30 PM 50.0 °F - 44.6 °F 82% 29.89 in 6.2 mi NNE 5.8 mph - N/A   Scattered Clouds
6:00 PM 50.0 °F - 44.6 °F 82% 29.89 in 6.2 mi NNE 10.4 mph - N/A   Scattered Clouds
6:30 PM 48.2 °F - 44.6 °F 87% 29.92 in 6.2 mi NNE 6.9 mph - N/A   Mostly Cloudy
7:00 PM 48.2 °F - 44.6 °F 87% 29.92 in 6.2 mi NE 9.2 mph - N/A   Scattered Clouds
7:30 PM 48.2 °F - 44.6 °F 87% 29.92 in 6.2 mi NNE 3.5 mph - N/A   Partly Cloudy
8:00 PM 48.2 °F - 44.6 °F 87% 29.95 in 6.2 mi NNE 3.5 mph - N/A   Partly Cloudy
8:30 PM 48.2 °F - 42.8 °F 82% 29.95 in 6.2 mi North 3.5 mph - N/A   Partly Cloudy
9:00 PM 48.2 °F - 42.8 °F 82% 29.95 in 6.2 mi NNE 4.6 mph - N/A   Partly Cloudy
9:30 PM 48.2 °F - 42.8 °F 82% 29.98 in 6.2 mi NE 3.5 mph - N/A   Scattered Clouds
10:00 PM 46.4 °F - 42.8 °F 87% 29.98 in 6.2 mi Calm Calm - N/A   Partly Cloudy
10:30 PM 46.4 °F - 42.8 °F 87% 29.98 in 6.2 mi Variable 2.3 mph - N/A Rain Light Rain
11:00 PM 46.4 °F - 42.8 °F 87% 30.01 in 6.2 mi Variable 1.2 mph - N/A Rain Rain Showers
11:18 PM 46.4 °F - 42.8 °F 87% 30.01 in 6.2 mi Variable 2.3 mph - N/A   Scattered Clouds
11:30 PM 46.4 °F 44.3 °F 44.6 °F 93% 30.01 in 6.2 mi North 4.6 mph - N/A Rain Rain